Wind_Speed
20 21 21 21 23 26 26 23 24 27 32 32 32 33 33 33 32 31 34 36 37 39 42 44 46 48 50 52 53 54 55 55 55 57 56 55 52 52 49 47 47 48 48 48
21 21 23 28 25 24 24 25 24 27 29 31 30 30 32 33 30 32 34 34 37 39 42 45 46 47 48 50 52 54 56 57 58 58 58 57 57 57 54 52 49 50 48 44
20 21 25 22 23 22 23 25 26 29 31 32 31 35 37 35 36 38 38 40 43 46 46 47 49 51 53 54 54 55 58 58 60 59 60 60 62 63 62 58 54 51 49 46
22 25 22 23 24 25 26 28 32 30 33 34 33 39 36 37 41 42 42 47 50 49 51 52 55 58 61 61 60 60 58 61 61 62 63 64 63 63 62 62 59 58 55 57
17 26 27 24 25 30 27 34 32 32 34 36 34 39 32 30 35 36 47 45 45 47 52 55 55 57 59 59 62 62 62 62 66 67 66 66 66 63 63 64 62 60 56 57
26 29 25 26 32 31 31 33 33 33 33 36 29 27 20 17 31 44 39 42 45 47 52 54 57 59 61 62 64 65 65 65 66 70 71 71 70 66 64 64 64 61 58 56
23 26 28 32 32 32 32 31 30 24 20 21 17 27 26 36 48 45 44 47 50 52 54 56 61 62 68 67 65 64 65 64 69 73 71 73 71 69 65 64 63 61 62 62
30 20 23 37 28 30 28 28 24 26 22 24 33 39 29 44 44 49 51 52 52 56 59 58 56 57 52 52 54 57 64 65 67 70 71 69 71 67 66 64 68 69 70 66
33 34 37 38 36 31 32 35 34 34 33 34 28 24 19 37 46 48 48 54 52 46 47 47 47 47 46 48 51 53 54 52 47 48 49 53 59 63 62 63 67 73 72 66
26 28 27 35 27 31 31 33 32 29 31 29 13 19 18 26 35 42 46 49 41 39 40 43 41 42 42 46 45 50 48 47 46 46 45 51 53 56 57 61 65 62 78 63
29 35 30 37 34 30 30 28 29 30 32 31 27 17 26 40 45 42 39 37 35 38 37 39 37 38 34 32 39 40 46 53 50 45 45 47 51 54 55 57 62 61 76 70
29 36 33 33 29 29 25 24 26 29 26 29 30 29 30 37 31 31 32 32 35 35 34 33 36 34 35 39 35 36 37 40 47 50 49 45 47 55 57 65 66 46 32 35
31 31 29 27 26 29 28 25 26 29 28 26 29 30 22 27 27 29 30 34 35 37 38 41 37 38 39 41 44 40 40 38 43 46 51 47 44 55 62 67 70 56 49 51
28 27 26 25 18 24 25 22 26 27 28 25 27 24 22 25 31 30 32 33 35 38 41 44 46 44 41 43 44 46 46 44 42 46 47 48 49 55 63 68 71 68 63 59
30 27 26 27 27 30 33 27 25 26 23 27 22 24 22 26 28 29 31 35 38 42 46 48 49 48 48 49 46 47 52 50 47 46 51 49 49 53 64 69 71 73 74 70
28 27 27 27 27 29 29 25 23 24 24 26 22 18 22 27 28 31 34 41 43 45 46 49 52 53 54 51 52 52 48 53 55 53 52 55 55 53 55 64 68 69 66 64
29 26 27 26 27 29 26 22 22 24 22 22 22 22 25 28 28 32 39 45 46 48 50 49 48 48 50 51 53 56 53 53 56 59 58 58 59 58 61 59 63 69 70 71
25 25 27 28 28 28 17 22 18 24 24 24 26 26 28 28 30 34 43 47 48 46 43 38 39 40 42 44 45 42 45 57 60 63 65 64 62 63 58 60 65 63 60 64
24 26 28 30 29 22 16 24 20 24 21 28 25 28 28 30 31 31 42 44 41 38 39 38 36 35 36 37 40 45 47 45 52 68 71 69 71 67 66 65 66 70 60 52
19 22 24 26 21 17 16 21 19 22 22 24 27 29 29 30 29 29 35 36 38 41 37 33 32 37 41 44 47 41 39 48 49 39 46 76 76 73 70 68 66 59 60 53
17 17 20 16 14 17 16 18 21 22 22 23 24 27 26 27 33 33 32 35 38 31 32 34 34 38 47 43 53 52 46 38 39 42 42 38 53 80 76 73 69 62 64 65
14 12 10 12 16 15 18 22 21 18 22 22 23 25 25 26 28 32 34 34 30 28 30 33 34 42 51 47 41 40 39 43 44 45 43 40 34 39 83 80 73 69 67 67
15 11 9 12 12 16 17 21 21 20 21 23 21 23 25 25 26 31 32 25 25 24 32 33 36 44 47 40 39 38 41 39 37 42 48 50 41 41 46 81 80 73 69 71
20 21 15 17 22 26 24 25 20 19 18 18 20 20 23 20 27 28 23 20 21 26 30 34 38 44 45 40 36 37 38 31 31 29 29 31 40 40 43 51 79 78 74 67
21 18 19 19 22 24 23 19 16 18 15 16 17 19 20 20 26 26 17 18 21 26 33 39 39 43 45 42 35 34 34 33 27 25 23 22 26 36 42 42 52 71 74 73
16 17 20 21 22 21 19 12 16 16 14 14 13 16 20 21 24 16 14 17 22 28 34 38 40 41 44 45 38 29 33 33 29 28 17 13 15 22 36 36 38 52 65 75
Wind_Direction
204 210 215 221 224 222 236 242 243 248 252 261 256 257 258 258 259 259 259 261 262 264 264 264 262 264 264 263 263 260 258 258 256 258 259 261 260 261 260 259 259 257 262 264
220 227 229 232 239 240 242 244 248 250 255 256 259 263 264 265 266 264 263 265 263 259 258 258 258 257 258 260 263 263 261 258 259 259 261 260 261 262 261 259 255 257 260 257
216 224 227 235 237 239 243 246 250 253 259 265 268 265 268 270 272 270 267 265 264 262 261 262 264 265 264 262 260 262 262 261 259 255 254 255 256 257 258 257 258 258 256 250
229 236 235 240 244 245 248 255 251 258 263 267 267 271 273 279 276 276 276 269 267 266 267 267 264 262 265 267 265 263 262 261 259 257 254 253 254 257 260 262 259 258 259 256
252 244 247 243 247 248 250 255 263 265 267 269 267 275 277 274 272 269 263 272 271 270 268 268 270 269 267 267 266 262 262 258 257 255 253 252 252 251 252 253 252 254 254 254
232 247 247 250 250 253 253 259 261 266 271 272 283 276 273 263 252 272 284 278 276 275 276 277 277 275 273 270 267 266 264 260 254 251 251 251 251 249 243 249 250 253 249 249
240 255 258 251 249 256 256 261 268 274 275 284 274 251 267 279 283 288 285 283 287 286 285 285 284 282 281 279 274 270 263 255 250 249 246 247 247 247 241 242 245 244 246 245
232 222 236 256 254 257 265 267 264 266 263 255 242 268 285 291 295 292 292 293 293 294 292 291 288 285 281 276 271 262 259 256 250 251 248 244 243 243 241 236 238 238 234 242
257 254 257 257 260 261 265 269 266 273 275 277 286 292 297 295 294 299 301 300 301 298 299 295 286 282 274 272 270 265 265 263 256 249 245 242 240 241 238 237 236 241 244 242
262 265 271 268 263 270 266 263 270 275 276 275 272 264 288 256 274 283 286 297 300 303 308 301 284 278 274 266 272 268 261 260 256 251 246 241 234 234 237 239 240 250 237 239
256 258 254 260 273 267 269 263 268 269 272 278 285 277 266 280 288 283 293 292 297 299 304 306 289 279 276 278 269 271 265 258 256 258 249 246 239 233 232 236 234 237 239 238
256 256 260 263 264 267 268 264 268 273 277 281 286 292 290 292 289 293 295 294 293 297 297 306 298 290 283 273 277 271 273 262 258 257 249 249 245 235 229 237 229 227 268 252
263 264 265 266 267 269 264 261 260 265 271 279 284 294 286 294 300 294 294 295 297 299 294 298 295 289 286 278 269 269 270 269 260 253 252 248 250 235 232 235 247 258 248 241
260 260 263 262 245 265 266 263 261 265 274 288 288 293 287 284 285 293 291 297 300 300 297 294 292 289 283 278 273 266 264 263 262 249 248 251 244 237 233 236 242 245 245 247
257 260 261 257 254 249 262 264 260 267 277 275 288 278 285 285 290 294 300 305 305 301 298 297 296 290 281 276 271 270 266 260 259 253 244 246 244 240 234 237 239 239 243 244
255 254 259 261 261 258 259 252 260 270 277 277 279 281 294 286 294 298 308 306 304 304 304 299 293 292 287 281 275 267 261 257 257 251 244 241 242 243 241 238 238 241 244 244
256 257 261 262 257 255 256 256 261 266 272 271 270 273 278 286 299 307 309 306 311 313 308 304 299 295 291 286 278 271 264 257 252 250 247 241 237 239 239 239 239 239 238 241
253 258 260 259 254 253 247 254 261 265 270 267 268 277 283 297 302 315 308 314 317 312 311 309 306 302 297 296 293 287 275 259 249 247 245 244 241 237 237 237 243 241 240 243
255 259 259 254 251 235 241 261 261 265 267 262 269 277 288 297 309 313 309 315 315 316 318 312 310 323 318 306 295 293 296 287 271 253 242 240 243 240 235 236 235 243 240 234
271 264 250 239 226 243 247 259 266 274 262 263 267 277 287 297 304 315 315 316 317 319 318 312 312 322 317 310 304 298 304 287 286 279 262 243 239 238 239 233 234 238 229 232
283 271 242 214 234 247 256 263 268 274 263 261 265 278 293 306 314 320 320 324 324 324 325 324 321 321 320 317 305 295 308 300 293 286 282 274 248 237 236 234 231 232 228 234
271 275 234 243 252 256 267 269 271 269 261 257 269 283 300 309 308 315 326 335 335 330 328 328 325 329 328 323 319 313 310 294 286 281 278 270 263 247 232 233 230 229 231 236
233 246 251 251 258 258 254 269 278 267 248 258 272 291 301 303 312 322 335 343 337 337 338 341 341 337 336 336 328 325 323 312 300 280 270 267 258 249 232 228 230 224 226 232
226 223 229 245 253 262 272 275 268 246 245 259 280 298 297 313 321 329 339 344 344 355 1 358 351 348 347 346 339 335 338 323 324 299 285 267 253 247 233 224 224 227 223 227
242 236 245 258 268 277 280 273 243 235 245 268 292 302 303 325 323 341 339 350 9 5 6 2 0 358 354 354 350 345 349 347 333 324 296 276 258 246 229 225 217 220 222 225
234 242 259 263 266 269 278 265 232 238 255 279 305 307 315 325 326 343 355 7 14 7 9 3 8 7 4 2 357 357 359 360 360 355 343 288 285 240 217 213 212 217 218 221
Height
5744 5748 5751 5753 5756 5757 5758 5761 5763 5764 5764 5764 5765 5766 5768 5769 5771 5772 5772 5772 5774 5773 5772 5772 5772 5772 5772 5773 5775 5776 5778 5779 5781 5783 5785 5788 5792 5795 5798 5802 5804 5806 5810 5811
5742 5744 5745 5746 5749 5751 5754 5755 5757 5757 5757 5757 5759 5760 5760 5761 5763 5763 5764 5765 5764 5764 5763 5762 5761 5761 5761 5762 5761 5762 5765 5767 5768 5771 5772 5776 5779 5780 5784 5789 5792 5795 5798 5801
5737 5736 5738 5742 5743 5746 5747 5749 5750 5751 5750 5750 5753 5752 5752 5754 5754 5753 5755 5755 5753 5751 5751 5751 5750 5749 5747 5748 5749 5749 5748 5751 5754 5757 5757 5761 5763 5766 5768 5775 5779 5785 5787 5788
5731 5732 5735 5736 5738 5740 5741 5741 5741 5744 5744 5744 5744 5743 5746 5746 5744 5744 5743 5739 5737 5740 5739 5738 5736 5732 5731 5733 5734 5735 5738 5737 5739 5741 5743 5745 5749 5752 5758 5761 5765 5771 5773 5776
5727 5726 5727 5731 5733 5731 5735 5732 5735 5736 5736 5736 5739 5736 5737 5738 5737 5733 5726 5730 5730 5728 5724 5722 5722 5722 5721 5720 5717 5718 5722 5724 5723 5723 5726 5730 5734 5740 5744 5745 5750 5754 5758 5762
5719 5719 5723 5724 5723 5726 5727 5728 5729 5729 5730 5728 5730 5729 5732 5731 5721 5714 5719 5717 5715 5713 5710 5708 5705 5702 5701 5700 5699 5701 5704 5705 5707 5707 5709 5712 5717 5724 5727 5732 5736 5739 5743 5749
5715 5716 5717 5716 5718 5720 5721 5722 5722 5724 5726 5724 5725 5717 5719 5715 5706 5706 5704 5702 5699 5696 5695 5691 5685 5682 5677 5675 5675 5677 5678 5684 5685 5686 5691 5695 5702 5707 5714 5720 5722 5727 5728 5730
5707 5711 5711 5706 5713 5713 5714 5714 5716 5713 5716 5718 5714 5710 5713 5698 5695 5690 5688 5685 5684 5680 5675 5670 5665 5661 5659 5655 5654 5656 5656 5660 5664 5666 5671 5678 5685 5691 5697 5704 5708 5709 5704 5712
5699 5701 5701 5701 5702 5706 5706 5704 5704 5703 5702 5700 5703 5703 5701 5693 5685 5680 5674 5670 5667 5664 5660 5655 5652 5648 5646 5644 5641 5642 5644 5646 5648 5651 5655 5660 5668 5675 5681 5689 5695 5695 5699 5703
5693 5692 5694 5692 5697 5697 5697 5696 5696 5696 5692 5693 5698 5696 5696 5687 5679 5674 5668 5663 5658 5654 5650 5644 5641 5637 5635 5635 5633 5632 5634 5636 5637 5639 5643 5646 5651 5659 5668 5674 5680 5686 5631 5674
5684 5684 5689 5684 5687 5687 5686 5688 5686 5686 5685 5683 5685 5689 5680 5673 5670 5665 5663 5657 5653 5648 5644 5637 5632 5630 5628 5625 5624 5623 5623 5624 5625 5628 5631 5635 5640 5646 5654 5659 5662 5660 5634 5652
5675 5673 5676 5677 5678 5678 5679 5679 5679 5676 5678 5676 5673 5674 5669 5664 5661 5658 5654 5650 5645 5642 5637 5631 5625 5621 5618 5616 5614 5613 5612 5613 5613 5615 5619 5621 5626 5633 5640 5638 5612 5615 5624 5650
5668 5668 5669 5670 5672 5669 5669 5671 5671 5670 5669 5669 5665 5665 5663 5660 5656 5652 5647 5642 5637 5632 5627 5623 5618 5613 5608 5605 5604 5603 5602 5602 5601 5602 5605 5609 5613 5618 5625 5627 5627 5627 5637 5649
5659 5661 5662 5664 5665 5661 5662 5664 5663 5661 5660 5659 5658 5657 5659 5655 5649 5644 5638 5633 5629 5624 5618 5611 5607 5603 5599 5594 5591 5590 5589 5589 5589 5590 5592 5596 5599 5604 5610 5616 5616 5622 5631 5637
5652 5654 5654 5654 5656 5655 5654 5656 5654 5653 5653 5651 5652 5650 5648 5644 5639 5634 5629 5625 5620 5614 5607 5600 5593 5588 5584 5581 5579 5577 5575 5576 5576 5577 5580 5582 5585 5589 5594 5598 5603 5610 5614 5620
5643 5646 5645 5645 5646 5646 5647 5648 5646 5646 5645 5643 5642 5641 5641 5636 5631 5626 5622 5616 5610 5604 5598 5590 5581 5575 5569 5565 5562 5559 5559 5561 5561 5561 5563 5567 5570 5573 5579 5585 5589 5594 5601 5610
5635 5638 5637 5638 5637 5638 5641 5639 5639 5639 5638 5638 5636 5636 5631 5628 5623 5620 5614 5605 5599 5592 5584 5575 5566 5559 5551 5545 5541 5538 5538 5540 5541 5543 5547 5550 5553 5557 5563 5568 5573 5580 5587 5595
5629 5630 5630 5630 5630 5632 5633 5631 5633 5632 5631 5629 5627 5626 5622 5619 5617 5613 5604 5595 5589 5580 5571 5563 5555 5546 5539 5531 5525 5521 5517 5515 5515 5519 5525 5531 5535 5540 5546 5552 5556 5564 5574 5581
5622 5622 5621 5621 5623 5626 5626 5624 5626 5624 5626 5621 5621 5618 5616 5613 5610 5610 5596 5590 5580 5571 5563 5553 5545 5538 5530 5522 5514 5506 5502 5497 5494 5493 5495 5505 5513 5519 5526 5534 5541 5547 5559 5567
5614 5614 5615 5615 5617 5618 5621 5619 5619 5618 5619 5616 5615 5612 5609 5607 5604 5601 5592 5583 5573 5563 5553 5545 5538 5530 5521 5511 5501 5493 5484 5478 5474 5470 5470 5478 5486 5496 5507 5516 5523 5532 5544 5552
5609 5609 5609 5609 5611 5614 5614 5613 5612 5613 5615 5609 5609 5606 5605 5600 5594 5590 5583 5574 5565 5555 5547 5539 5531 5522 5510 5498 5487 5478 5469 5466 5459 5455 5455 5457 5459 5471 5482 5494 5507 5516 5527 5538
5607 5606 5606 5607 5607 5609 5608 5607 5607 5607 5604 5604 5603 5600 5598 5595 5590 5583 5575 5566 5559 5551 5544 5535 5526 5516 5501 5487 5475 5465 5458 5451 5444 5440 5439 5441 5443 5444 5456 5470 5486 5501 5512 5522
5605 5605 5606 5607 5606 5604 5601 5600 5600 5599 5598 5598 5598 5595 5592 5590 5584 5577 5569 5562 5555 5548 5540 5530 5520 5509 5492 5478 5466 5456 5445 5433 5425 5421 5420 5421 5424 5428 5433 5445 5463 5480 5495 5507
5599 5600 5601 5601 5600 5597 5596 5594 5594 5592 5592 5593 5592 5591 5589 5584 5577 5571 5564 5558 5552 5545 5536 5526 5516 5503 5487 5473 5461 5449 5437 5425 5416 5407 5404 5402 5405 5410 5417 5424 5440 5458 5478 5493
5593 5595 5595 5594 5593 5590 5588 5586 5586 5587 5587 5588 5587 5586 5583 5578 5572 5566 5561 5555 5550 5543 5534 5523 5513 5499 5485 5470 5457 5446 5434 5422 5410 5400 5393 5392 5392 5393 5401 5412 5423 5440 5462 5477
5587 5589 5588 5588 5585 5583 5582 5582 5582 5582 5584 5584 5583 5583 5578 5573 5568 5564 5558 5553 5548 5541 5533 5522 5510 5498 5485 5469 5455 5445 5434 5423 5409 5398 5388 5385 5383 5383 5391 5404 5415 5428 5444 5461